Flag for Germany Weather past 2 weeks in Zwickau, Saxony, Germany

60 °F

Light rain. Low clouds.

Feels Like: 60 °F
Forecast: 50 / 61 °F
Wind: 1 mph from Northwest

Location: Gera-Leumnitz

Current Time: Oct 7, 2015 at 6:33:01 PM

Latest Report: Oct 7, 2015 at 6:00 PM

Visibility: 15 mi

Pressure: 29.90 "Hg

Humidity: 95%

Dew point: 58 °F

Location of ZwickauLocation

Historic Weather in Zwickau — Graph


Zwickau temperature yesterday

Maximum temperature yesterday: 62 °F (at 2:00 PM)
Minimum temperature yesterday: 50 °F (at 2:00 AM)
Average temperature yesterday: 56 °F

Past Weeks' High & Low Weather Summary

High69 °F (Oct 3, 3:00 PM)100% (Sep 28, 4:00 AM)30.64 "Hg (Sep 28, 4:00 AM)
Low32 °F (Oct 2, 7:00 AM)41% (Sep 30, 3:00 PM)29.64 "Hg (Sep 22, 5:00 PM)
Average53 °F78%30.20 "Hg
* Reported Sep 22 5:00 PM — Oct 7 5:00 PM, Zwickau, Weather by CustomWeather, © 2015

Note: Actual official high and low records may vary slightly from our data, if they occured in-between our weather recording intervals... More about our weather records


Zwickau weather history for previous 24 hours

Time TempWeatherWind HumidityBarometerVisibility
5:00 PM
Wed, Oct 7
60 °FLight rain. Overcast.1 mph93%29.90 "Hg17 mi
4:00 PM60 °FLight rain. Overcast.2 mph97%29.89 "Hg16 mi
3:00 PM59 °FRain showers. Overcast.3 mph98%29.89 "Hg7 mi
2:00 PM63 °FOvercast.1 mph83%29.87 "Hg9 mi
1:00 PM65 °FOvercast.1 mph82%29.86 "Hg14 mi
12:00 PM62 °FLow clouds.3 mph93%29.86 "Hg11 mi
11:00 AM59 °FOvercast.3 mph94%29.85 "Hg6 mi
10:00 AM58 °FOvercast.3 mph98%29.84 "Hg2 mi
9:00 AM57 °FOvercast.3 mph99%29.83 "Hg2 mi
8:00 AM56 °FLight rain. Overcast.3 mph99%29.82 "Hg2 mi
7:00 AM56 °FLight rain. Overcast.3 mph99%29.81 "Hg2 mi
6:00 AM56 °FOvercast.2 mph100%29.80 "Hg2 mi
5:00 AM56 °FLight freezing rain. Overcast.3 mph99%29.80 "Hg2 mi
4:00 AM56 °FLight rain. Overcast.5 mph98%29.79 "Hg2 mi
3:00 AM57 °FLight rain. Overcast.6 mph97%29.79 "Hg2 mi
2:00 AM57 °FLight rain. Overcast.6 mph94%29.78 "Hg2 mi
1:00 AM58 °FLight rain. Overcast.5 mph88%29.78 "Hg4 mi
11:00 PM
Tue, Oct 6
58 °FOvercast.3 mph88%29.77 "Hg11 mi
10:00 PM57 °FOvercast.5 mph89%29.77 "Hg9 mi
9:00 PM58 °FOvercast.3 mph86%29.77 "Hg19 mi
8:00 PM58 °FOvercast.3 mph85%29.77 "Hg22 mi
7:00 PM59 °FOvercast.2 mph82%29.75 "Hg25 mi
6:00 PM60 °FOvercast.2 mph80%29.74 "Hg25 mi
Weather by CustomWeather, © 2015

See weather overviewHow to use our weather pages